Home > Weather > Yavatmal > Past weeks

Flag for India Past Weather in Yavatmal, Maharashtra, India — Yesterday and Last 2 Weeks

Now
90 °F

Scattered clouds.


Feels Like: 100 °F
Forecast: 76 / 86 °F
Wind: 7 mph from Northwest

Location: Nagpur Sonegaon

Current Time: Aug 26, 2016 at 2:09:29 PM

Latest Report: Aug 26, 2016 at 1:00 PM


Visibility: 3 mi

Pressure: 29.71 "Hg

Humidity: 63%

Dew Point: 75 °F

Location of YavatmalLocation

Past Weather in Yavatmal — Graph

°F

Yavatmal Temperature Yesterday

Maximum temperature yesterday: 95 °F (at 4:30 PM)
Minimum temperature yesterday: 81 °F (at 3:00 AM)
Average temperature yesterday: 86 °F

High & Low Weather Summary for the Past Weeks

 TemperatureHumidityPressure
High95 °F (Aug 25, 4:30 PM)94% (Aug 12, 1:30 AM)29.77 "Hg (Aug 12, 1:30 AM)
Low75 °F (Aug 17, 4:30 AM)33% (Aug 17, 12:30 PM)29.53 "Hg (Aug 16, 4:30 PM)
Average83 °F73%29.67 "Hg
* Reported Aug 11 12:30 PM — Aug 26 1:00 PM, Yavatmal, Weather by CustomWeather, © 2016

Note: Actual official high and low records may vary slightly from our data, if they occured in-between our weather recording intervals... More about our weather records

Advertising

Yavatmal Weather History for the Previous 24 Hours

Scroll right to see more
 ConditionsComfort  
Time TempWeatherWind HumidityBarometerVisibility
1:00 PM
Fri, Aug 26
90 °FScattered clouds.7 mph63%29.71 "Hg3 mi
12:30 PM88 °FScattered clouds.7 mph66%29.74 "Hg3 mi
12:00 PM88 °FPartly sunny.7 mph66%29.74 "Hg2 mi
11:30 AM86 °FBroken clouds.7 mph70%29.77 "Hg2 mi
11:00 AM84 °FBroken clouds.7 mph74%29.77 "Hg2 mi
10:30 AM84 °FBroken clouds.7 mph74%29.77 "Hg2 mi
10:00 AM82 °FBroken clouds.5 mph79%29.77 "Hg2 mi
9:30 AM82 °FBroken clouds.7 mph79%29.77 "Hg2 mi
9:00 AM82 °FBroken clouds.7 mph79%29.77 "Hg1 mi
8:30 AM82 °FBroken clouds.5 mph74%29.77 "Hg1 mi
8:00 AM81 °FBroken clouds.5 mph79%29.77 "Hg1 mi
7:30 AM81 °FBroken clouds.6 mph84%29.74 "Hg1 mi
6:30 AM81 °FLight rain. Broken clouds.7 mph89%29.71 "Hg1 mi
6:00 AM79 °FPassing clouds.No wind94%29.71 "Hg2 mi
5:30 AM79 °FPassing clouds.No wind89%29.71 "Hg2 mi
4:30 AM79 °FPassing clouds.No wind89%29.71 "Hg2 mi
3:30 AM79 °FLight rain. Passing clouds.No wind89%29.74 "Hg2 mi
3:00 AM79 °FLight rain. Passing clouds.No wind89%29.71 "Hg2 mi
2:30 AM79 °FLight rain. Passing clouds.No wind89%29.71 "Hg2 mi
1:30 AM79 °FLight rain. Passing clouds.No wind89%29.74 "Hg2 mi
12:00 AM81 °FLight rain. Passing clouds.No wind89%29.77 "Hg2 mi
11:30 PM
Thu, Aug 25
81 °FLight rain. Partly cloudy.No wind89%29.74 "Hg2 mi
10:30 PM81 °FLight rain. Partly cloudy.No wind89%29.77 "Hg2 mi
10:00 PM81 °FLight rain. Partly cloudy.2 mph89%29.77 "Hg2 mi
9:30 PM81 °FLight rain. Passing clouds.3 mph89%29.74 "Hg2 mi
9:00 PM81 °FLight rain. Passing clouds.7 mph84%29.74 "Hg2 mi
8:00 PM90 °FPassing clouds.7 mph59%29.71 "Hg3 mi
7:00 PM91 °FScattered clouds.7 mph56%29.68 "Hg3 mi
6:30 PM91 °FScattered clouds.7 mph56%29.68 "Hg3 mi
6:00 PM91 °FScattered clouds.10 mph52%29.65 "Hg3 mi
5:30 PM91 °FScattered clouds.10 mph52%29.65 "Hg3 mi
4:30 PM95 °FScattered clouds.7 mph50%29.62 "Hg3 mi
4:00 PM93 °FScattered clouds.9 mph53%29.65 "Hg3 mi
2:30 PM93 °FScattered clouds.7 mph49%29.65 "Hg3 mi
2:00 PM93 °FThunderstorms. Cloudy.5 mph49%29.68 "HgN/A
Weather by CustomWeather, © 2016

See weather overviewHow to use our weather pages